User: anonymous   Login
Location: Corte Bragagnani
(45.3000°N, 11.1000°E)
Time: 17:10:07
(UTC+00:00)
Language:

SPOT 3 Rocket - Orbit

View from above orbital plane
View from above orbital plane
View from above satellite
View from above satellite

Ground track
Ground track

The orbit data is extracted from the following two-line orbital elements,

1 22830U 93061H   20196.42393862 -.00000035  00000-0  39128-5 0  9996
2 22830  98.7630 245.8662 0009934 239.8759 120.1439 14.31452347398937
Epoch (UTC): 14 July 2020 10:10:28
Eccentricity: 0.0009934
inclination: 98.7630°
perigee height: 780 km
apogee height: 794 km
right ascension of ascending node: 245.8662°
argument of perigee: 239.8759°
revolutions per day: 14.31452347
mean anomaly at epoch: 120.1439°
orbit number at epoch: 39893

The dashed part of the orbit path shows where the satellite is in the earth's shadow,  

DLR